Regional Weather Roundup
Issued by NWS Northern Indiana

Home | Current Version | Previous Version | Text Only | Print | Product List | Glossary Off
Versions: 1 2 3 4 5 6 7 8 9 10 11 12 13 14 15 16 17 18 19 20 21 22 23 24 25 26 27 28 29 30 31 32 33 34 35 36 37 38 39 40 41 42 43 44 45 46 47 48 49 50

000
ASUS43 KIWX 061300
RWRIWX

KIWX WEATHER ROUNDUP
NATIONAL WEATHER SERVICE NORTHERN INDIANA
800 AM EST FRI MAR 06 2015

NOTE: "FAIR" INDICATES FEW OR NO CLOUDS BELOW 12,000 FEET WITH NO
SIGNIFICANT WEATHER AND/OR OBSTRUCTIONS TO VISIBILITY.

* THESE STATIONS ARE NOT UNDER NWS QUALITY CONTROL. THEY ALSO MAY NOT
  REPORT WEATHER SUCH AS PRECIPITATION OR FOG.

INZ001>027-061400-
NORTHERN INDIANA

CITY           SKY/WX    TMP DP  RH WIND       PRES   REMARKS
GARY*          PTCLDY     7  -4  61 S7        30.47F WCI  -5
SOUTH BEND     PTCLDY     2  -3  80 S3        30.47S
ELKHART*       MOCLDY     1  -6  71 SW6       30.48S WCI -10
GOSHEN         MOCLDY     0  -4  83 S6        30.47F WCI -12
MONTICELLO*    PTCLDY     1  -2  86 S3        30.50S
ANGOLA*        CLEAR     -6 -11  77 CALM      30.45S
FORT WAYNE     MOCLDY    -1  -5  82 SW7       30.50F WCI -14
PERU/GRISSOM   MOCLDY     1  -3  81 S7        30.49S WCI -12

$$
INZ028>050-061400-
CENTRAL INDIANA

CITY           SKY/WX    TMP DP  RH WIND       PRES   REMARKS
LAFAYETTE      PTCLDY    -2  -4  91 CALM      30.52F
KOKOMO*          N/A    N/A N/A N/A MISG        N/A
MUNCIE*        PTCLDY     5   1  83 S3        30.51R
INDIANAPOLIS   MOCLDY     5   0  79 S3        30.51S

$$
MIZ043>046-050>051-056>058-064>065-071>073-077>080-061400-
SOUTHWEST LOWER MICHIGAN

CITY           SKY/WX    TMP DP  RH WIND       PRES   REMARKS
BATTLE CREEK   MOCLDY     2  -3  80 S7        30.42F WCI -11
BENTON HARBOR  PTCLDY     3  -2  79 S9        30.45F WCI -12
COLDWATER*     PTCLDY     1  -4  82 SW6       30.44F WCI -11
HILLSDALE*     PTCLDY     5   1  84 SW6       30.42S WCI  -6
HOLLAND        PTCLDY     7   2  80 S9        30.42F WCI  -7
GRAND RAPIDS   FLURRIES   6   1  80 S12       30.40F WCI  -9
KALAMAZOO      MOCLDY     0  -4  83 S9        30.44F WCI -15
STURGIS*       MOCLDY     0  -4  85 CALM      30.45S
THREE RIVERS*  FAIR      -1  -5  82 S3        30.46F

$$
OHZ001>008-015>018-024>025-061400-
NORTHWEST OHIO

CITY           SKY/WX    TMP DP  RH WIND       PRES   REMARKS
DEFIANCE       PTCLDY     2  -2  83 SW5       30.51S WCI  -8
FINDLAY        MOCLDY     3   1  91 S6        30.50S FOG     WCI  -8
TOLEDO EXPRESS MOCLDY    -2  -5  87 CALM      30.49F
TOLEDO METCALF MOCLDY     4  -1  80 SW6       30.52S WCI  -7
LIMA           PTCLDY     5   0  79 S6        30.49S HAZE    WCI  -6

$$
AND FOR LAKE MICHIGAN COASTAL AND OPEN LAKE BUOY OBSERVATIONS

STATION/POSITION TEMP    WIND        PRES    VSBY  WAVE
                 AIR SEA DIR/SP/G                  HT/PER
                 (F)     (DEG/KT/KT) (MB)    (MI)  (FT/S)
CALUMET HARBOR     7     190/  8/ 11 1030.1F
MICHIGAN CITY      5     160/ 11/ 14   N/A
SAINT JOSEPH       5     150/  7/ 13 1031.8S

$$
&&



USA.gov is the U.S. government's official web portal to all federal, state and local government web resources and services.